www.pogodaiklimat.ru

Погода и климат >> Архив погоды >> Латвия >> Мерсрагс


ПОГОДА в Мерсрагсе

  • Прогноз погоды в Мерсрагсе
  • Монитор погоды в Мерсрагсе

АРХИВ ПОГОДЫ в Мерсрагсе

Время (UTC), дата Ветер
(напр.,м/с)
 
Видим.   Явления Облачность Т
(С)
Тd
(С)
f
(%)
Тe
(С)
Тes
(С)
Комфортность P
(гПа)
Po
(гПа)
Тmin
(С)
Tmax
(С)
R
(мм)
R24
(мм)
S
(см)
12 16.07 СЗ 3-5
{5}
20 км н/о +15.2 +13.3 88 +14 +14 1005.8 1005.0
15 16.07 С 3-6
{7}
20 км н/о +15.9 +11.4 75 +15 +15 1006.5 1005.7
18 16.07 С 2-4
{6}
19 км н/о +15.3 +11.0 76 +15 +15 1006.6 1005.8
21 16.07 З 1-2
{3}
10 км н/о +13.1 +11.6 91 +13 +13 1006.8 1006.0 0.1
00 17.07 СВ 1-2
{2}
20 км н/о +13.4 +12.9 97 +13 +13 1006.6 1005.8
03 17.07 З 1-1
{2}
20 км н/о +13.4 +13.0 97 +13 +13 1006.9 1006.1
06 17.07 С 3-6
{7}
20 км н/о +16.3 +13.3 82 +16 +16 1007.2 1006.4
09 17.07 С 4-6
{7}
20 км н/о +16.7 +13.5 81 +16 +16 1007.9 1007.1
12 17.07 С 5-8
{8}
20 км н/о +18.5 +12.6 68 +19 +19 1008.2 1007.4
15 17.07 СЗ 4 20 км н/о +19.8 +12.5 63 +21 +21 комфорт 1009.4 1008.0
18 17.07 СЗ 2-4
{6}
20 км н/о +18.3 +14.1 76 +19 +19 1009.5 1008.1
21 17.07 СЗ 1-3
{4}
20 км н/о +16.0 +14.4 90 +17 +17 1010.1 1008.7
00 18.07 С 1-2
{2}
1700 м н/о +14.0 +13.8 99 +14 +14 1009.7 1008.9
03 18.07 ЮЗ 1-1
{1}
6000 м н/о +10.5 +10.5 100 +10 +10 1011.2 1009.8
06 18.07 С 3-5
{5}
20 км н/о +18.5 +13.4 72 +19 +19 1011.6 1010.2
09 18.07 СЗ 4-7
{7}
20 км н/о +19.6 +10.8 57 +21 +21 комфорт 1011.3 1010.5
12 18.07 С 5-8
{9}
20 км н/о +21.5 +11.4 53 +24 +24 комфорт 1011.2 1010.4
15 18.07 СЗ 4-9
{9}
19 км н/о +21.5 +14.6 65 +25 +25 комфорт 1011.0 1010.2
18 18.07 СЗ 2-5
{8}
20 км н/о +19.4 +12.8 66 +21 +21 комфорт 1011.3 1010.5
21 18.07 З 3-4
{5}
20 км н/о +14.7 +12.8 88 +14 +14 1011.8 1011.0
00 19.07 З 2-4
{5}
20 км н/о +13.4 +13.1 98 +13 +13 1012.7 1011.3
03 19.07 З 3-4
{5}
14 км н/о +13.2 +13.0 99 +12 +12 1012.1 1011.3
06 19.07 СЗ 3-6
{7}
20 км н/о +17.9 +14.1 78 +18 +18 1012.8 1011.4
09 19.07 С 4-7
{7}
20 км н/о +21.1 +15.8 72 +24 +24 комфорт 1012.3 1011.5
12 19.07 С 4-7
{7}
20 км н/о +22.2 +9.6 45 +24 +24 комфорт 1012.7 1011.9
15 19.07 С 4-8
{8}
20 км н/о +21.9 +10.9 50 +24 +24 комфорт 1012.8 1012.0
18 19.07 СЗ 2-3
{5}
20 км н/о +20.1 +10.7 55 +22 +22 комфорт 1013.1 1012.3
21 19.07 З 1-2
{4}
20 км н/о +13.5 +9.3 76 +14 +14 1014.0 1013.2
00 20.07 ЮЗ 1-2
{2}
20 км н/о +11.2 +10.7 97 +11 +11 1014.6 1013.8
03 20.07 ЮЗ 1-2
{2}
4700 м н/о +10.1 +10.1 100 +9 +9 1015.8 1014.4
06 20.07 СЗ 3-4
{5}
20 км н/о +17.8 +13.4 75 +18 +18 1015.6 1014.8
09 20.07 С 1-3
{4}
20 км н/о +23.0 +9.3 42 +25 +25 комфорт 1016.3 1015.5
12 20.07 СВ 3-5
{5}
20 км н/о +21.4 +13.0 59 +24 +24 комфорт 1016.8 1016.0
15 20.07 СВ 3-4
{5}
20 км н/о +20.5 +12.1 59 +23 +23 комфорт 1017.0 1016.2
18 20.07 СВ 1-3
{3}
20 км н/о +19.5 +14.5 73 +22 +22 комфорт 1017.0 1016.2
21 20.07 ЮЗ 1-1
{1}
9000 м н/о +12.3 +12.1 99 +12 +12 1017.7 1016.9
00 21.07 З 1-1
{2}
8000 м н/о +9.8 +9.7 99 +9 +9 1018.6 1017.2
03 21.07 ЮЗ 1-1
{1}
19 км н/о +9.5 +9.4 99 +9 +9 1017.3 1016.5
06 21.07 ЮВ 2-4
{4}
20 км н/о +21.0 +11.5 55 +24 +24 комфорт 1018.0 1016.6
09 21.07 В 4-7
{7}
20 км н/о +21.3 +14.4 65 +24 +24 комфорт 1016.7 1015.9
12 21.07 В 4-6
{7}
20 км н/о +22.6 +14.9 62 +26 +26 жарко 1015.7 1014.9
15 21.07 В 3-6
{6}
20 км н/о +22.6 +15.8 65 +27 +27 душно 1014.2 1013.4
18 21.07 ЮЗ 2-3
{6}
11 км н/о +17.8 +17.2 96 +18 +18 1015.4 1014.6 3
21 21.07 ЮЗ 2-2
{3}
7000 м н/о +17.6 +17.4 99 +18 +18 1015.7 1014.3
00 22.07 З 3-5
{6}
16 км н/о +16.9 +16.3 96 +17 +17 1015.0 1014.2
03 22.07 ЮЗ 1-1
{2}
3900 м н/о +15.4 +15.3 99 +16 +16 1016.1 1014.6
06 22.07 ЮЗ 2-3
{4}
20 км н/о +17.8 +16.4 92 +18 +18 1015.0 1014.2
09 22.07 ЮЗ 1-2
{2}
20 км н/о +19.4 +15.8 80 +22 +22 комфорт 1015.4 1014.6
12 22.07 СЗ 1-3
{5}
5000 м н/о +18.0 +16.6 92 +19 +19 1015.8 1015.0 1
15 22.07 СЗ 2-4
{4}
20 км н/о +19.4 +16.0 81 +22 +22 комфорт 1015.5 1014.7
18 22.07 СЗ 2-4
{5}
20 км н/о +17.4 +16.4 94 +18 +18 1015.8 1015.0
21 22.07 З 2-3
{4}
19 км н/о +15.5 +14.9 96 +15 +15 1016.0 1015.2
00 23.07 З 3-5
{5}
19 км н/о +14.3 +13.9 97 +13 +13 1016.2 1015.4
03 23.07 З 1-2
{3}
16 км н/о +13.3 +13.1 99 +13 +13 1015.7 1014.9
06 23.07 СЗ 3-5
{5}
20 км н/о +18.4 +15.0 81 +19 +19 1016.0 1015.2
09 23.07 СЗ 2-4
{5}
20 км н/о +18.6 +14.6 78 +20 +20 1016.8 1016.0

 

Местоположение метеостанции Мерсрагс (Латвия): широта 57.35 долгота 23.12 высота над уровнем моря 6 м.

В архиве по умолчанию представлена погода в Мерсрагсе за последнюю неделю. Архивные данные за месяц целиком и за предыдущие месяцы, начиная с января 2011 года, Вы можете получить, выбрав интересующий диапазон дат из раскрывающегося списка и нажав кнопку "Ввод!".


*Определитесь, кто Вы:
робот инопланетянин человек

Внимание! Время в таблицах - всемирное. Для получения местного времени необходимо прибавить поправку, которая равна 2 ч.

Смотрите также архив погоды в соседних городах и на ближайших метеорологических станциях:

Погода в Стенде (Латвия) (39 км)
Погода на Рухну (Эстония) (54 км)
Погода в Колке (Латвия) (54 км)
Погода в Риге (Латвия) (70 км)
Погода в Скульте (Латвия) (78 км)
Погода в Добеле (Латвия) (82 км)
Погода в Салдусе (Латвия) (83 км)
Погода в Елгаве (Латвия) (86 км)
Погода в Сырве (Эстония) (90 км)
Погода в Айнажи (Латвия) (94 км)

Пояснения к столбцам:

Ветер - указаны скорость ветра в м/с - средняя за 10 мин, порывы в срок и между сроками (в фигурных скобках) и направление, откуда дует ветер: С - северный, СВ - северо-восточный, В - восточный, ЮВ - юго-восточный, Ю - южный, ЮЗ - юго-западный, З - западный, СЗ - северо-западный.
Видимость - горизонтальная дальность видимости в метрах или километрах. При видимости от 1 до 10 км при отсутствии осадков обычно наблюдается дымка, при ухудшении видимости до 1 км и менее - туман. В сухую погоду видимость может ухудшаться дымом, пылью или мглою.
Явления - указаны атмосферные явления, наблюдавшиеся в срок или в последний час перед сроком; фигурными скобками обозначены явления, наблюдавшиеся между сроками (за 1-3 часа до срока); квадратными скобками обозначены град или гололедные отложения с указанием их диаметра в мм.
Облачность - указаны через наклонную черту общая и нижняя облачность в баллах и высота нижней границы облаков в метрах; квадратными скобками обозначены формы облаков: Ci - перистые, Cs - перисто-слоистые, Cc - перисто-кучевые, Ac - высококучевые, As - высокослоистые, Sc - слоисто-кучевые, Ns - слоисто-дождевые, Cu - кучевые, Cb - кучево-дождевые. Подробнее классификацию облаков см. в Атласе облаков (PDF).
T - Температура воздуха - температура, измеренная на высоте 2 м над землей.
Td - Температура точки росы - температура, при понижении до которой содержащийся в воздухе водяной пар достигнет насыщения.
f - Относительная влажность воздуха - влажноcть воздуха, измеренная на высоте 2 м над землей.
Te - Эффективная температура - температура, которую ощущает одетый по сезону человек в тени. Характеристика душности погоды. При расчете учитывается влияние влажности воздуха и скорости ветра на теплоощущения человека.
Tes - Эффективная температура на солнце - температура, которую ощущает человек, с поправкой на солнечный нагрев. Характеристика знойности погоды. Зависит от высоты солнца над горизонтом, облачности и скорости ветра. Ночью, в пасмурную погоду, а также при ветре 12 м/с и более поправка равна нулю.
P - Атмосферное давление - приведенное к уровню моря атмосферное давление.
Po - Атмосферное давление - измеренное на уровне метеостанции атмосферное давление.
Tmin - Минимальная температура - минимум температуры воздуха на высоте 2 м над землей.
Tmax - Максимальная температура - максимум температуры воздуха на высоте 2 м над землей.
R - Количество осадков - Количество выпавших осадков за период времени, мм. При наведении курсора мыши на число - период времени, за который выпало указанное количество осадков.
R24 - Количество осадков - Количество выпавших осадков за 24 часа, мм.
S - Снежный покров - Высота снежного покрова, см. При наведении курсора мыши на число - состояние снежного покрова и степень покрытия местности в баллах.